,,PA_Meas_PMT16A,,PR_Meas_QMR101_102,,RH_Meas_QMH101,,SR_Meas_QMS101,,TA_Meas_QMH101,,GenWind,,GenWind,
time,status,PA,status,PR,status,RH,status,SR,status,TA,status,DirAvg,status,SpdAvg,
2010-07-20, 00:00:04,VALID,917.675,VALID,0,VALID,94.5075,VALID,0.107441,VALID,20.4423,VALID,115,VALID,0.349609,
2010-07-20, 00:01:04,VALID,917.674,VALID,0,VALID,94.5304,VALID,0,VALID,20.4018,VALID,115,VALID,0.451953,
2010-07-20, 00:02:04,VALID,917.655,VALID,0,VALID,94.5913,VALID,0,VALID,20.4228,VALID,115,VALID,0.475,
2010-07-20, 00:03:04,VALID,917.631,VALID,0,VALID,94.6295,VALID,0,VALID,20.4228,VALID,115,VALID,0.523047,
2010-07-20, 00:04:04,VALID,917.618,VALID,0,VALID,94.7057,VALID,0,VALID,20.4213,VALID,115,VALID,0.367188,
2010-07-20, 00:05:04,VALID,917.583,VALID,0,VALID,94.6905,VALID,0,VALID,20.4423,VALID,115,VALID,0.463281,
2010-07-20, 00:06:04,VALID,917.578,VALID,0,VALID,94.6981,VALID,0,VALID,20.4213,VALID,115,VALID,0.0558594,
2010-07-20, 00:07:04,VALID,917.574,VALID,0,VALID,94.7209,VALID,0,VALID,20.4423,VALID,115,VALID,0.175781,
2010-07-20, 00:08:04,VALID,917.521,VALID,0,VALID,94.7133,VALID,0,VALID,20.4423,VALID,115,VALID,0.133203,
2010-07-20, 00:09:04,VALID,917.519,VALID,0,VALID,94.6371,VALID,0,VALID,20.4618,VALID,115,VALID,0.578125,
2010-07-20, 00:10:04,VALID,917.479,VALID,0,VALID,94.5685,VALID,0,VALID,20.4618,VALID,115,VALID,0.501172,
2010-07-20, 00:11:04,VALID,917.482,VALID,0,VALID,94.5609,VALID,0,VALID,20.4618,VALID,115,VALID,0.221484,
2010-07-20, 00:12:04,VALID,917.448,VALID,0,VALID,94.5075,VALID,0,VALID,20.4813,VALID,115,VALID,0.00117188,
2010-07-20, 00:13:04,VALID,917.44,VALID,0,VALID,94.5761,VALID,0,VALID,20.4603,VALID,115,VALID,0.015625,
2010-07-20, 00:14:04,VALID,917.427,VALID,0,VALID,94.5532,VALID,0,VALID,20.4408,VALID,115,VALID,0.114453,
2010-07-20, 00:15:04,VALID,917.418,VALID,0,VALID,94.5913,VALID,0.107441,VALID,20.4813,VALID,115,VALID,0,
2010-07-20, 00:16:04,VALID,917.392,VALID,0,VALID,94.5304,VALID,0,VALID,20.4603,VALID,115,VALID,0,
2010-07-20, 00:17:04,VALID,917.401,VALID,0,VALID,94.477,VALID,0.107441,VALID,20.4618,VALID,115,VALID,0,
2010-07-20, 00:18:04,VALID,917.39,VALID,0,VALID,94.4617,VALID,0,VALID,20.4618,VALID,115,VALID,0,
2010-07-20, 00:19:04,VALID,917.415,VALID,0,VALID,94.4008,VALID,0.107441,VALID,20.4018,VALID,115,VALID,0.236719,
2010-07-20, 00:20:04,VALID,917.366,VALID,0,VALID,94.4999,VALID,0,VALID,20.4228,VALID,115,VALID,0.425781,
2010-07-20, 00:21:04,VALID,917.355,VALID,0,VALID,94.477,VALID,0,VALID,20.3643,VALID,115,VALID,0.322656,
2010-07-20, 00:22:04,VALID,917.35,VALID,0,VALID,94.4465,VALID,0,VALID,20.3253,VALID,115,VALID,0.358203,
2010-07-20, 00:23:04,VALID,917.313,VALID,0,VALID,94.4008,VALID,0,VALID,20.2458,VALID,115,VALID,0.262109,
2010-07-20, 00:24:04,VALID,917.292,VALID,0,VALID,94.1644,VALID,0,VALID,20.1678,VALID,115,VALID,0.244531,
2010-07-20, 00:25:04,VALID,917.291,VALID,0,VALID,94.2559,VALID,0,VALID,20.0898,VALID,115,VALID,0.346484,
2010-07-20, 00:26:04,VALID,917.289,VALID,0,VALID,94.5685,VALID,0,VALID,20.0718,VALID,115,VALID,0.249219,
2010-07-20, 00:27:04,VALID,917.246,VALID,0,VALID,94.9878,VALID,0,VALID,20.0718,VALID,115,VALID,0.664453,
2010-07-20, 00:28:04,VALID,917.24,VALID,0,VALID,95.2012,VALID,0,VALID,20.0718,VALID,115,VALID,0.930078,
2010-07-20, 00:29:04,VALID,917.225,VALID,0,VALID,95.3308,VALID,0,VALID,20.0523,VALID,115,VALID,0.878516,
2010-07-20, 00:30:04,VALID,917.237,VALID,0,VALID,95.4071,VALID,0,VALID,20.0328,VALID,115,VALID,0.689844,
2010-07-20, 00:31:04,VALID,917.202,VALID,0,VALID,95.6129,VALID,0,VALID,20.0118,VALID,115,VALID,0.678125,
2010-07-20, 00:32:04,VALID,917.228,VALID,0,VALID,95.7272,VALID,0.107441,VALID,20.0523,VALID,115,VALID,0.422656,
2010-07-20, 00:33:04,VALID,917.207,VALID,0,VALID,95.8111,VALID,0,VALID,20.0328,VALID,115,VALID,0.344922,
2010-07-20, 00:34:04,VALID,917.212,VALID,0,VALID,95.8645,VALID,0,VALID,20.0328,VALID,115,VALID,0.248047,
2010-07-20, 00:35:04,VALID,917.211,VALID,0,VALID,95.8721,VALID,0,VALID,20.0328,VALID,115,VALID,0.217187,
2010-07-20, 00:36:04,VALID,917.239,VALID,0,VALID,95.8797,VALID,0,VALID,20.0328,VALID,115,VALID,0,
2010-07-20, 00:37:04,VALID,917.228,VALID,0,VALID,95.8797,VALID,0,VALID,20.0328,VALID,115,VALID,0,
2010-07-20, 00:38:04,VALID,917.243,VALID,0,VALID,95.9483,VALID,0,VALID,20.0523,VALID,115,VALID,0,
2010-07-20, 00:39:04,VALID,917.237,VALID,0,VALID,95.9559,VALID,0,VALID,20.0718,VALID,115,VALID,0,
2010-07-20, 00:40:04,VALID,917.219,VALID,0,VALID,95.9178,VALID,0,VALID,20.0733,VALID,115,VALID,0.228906,
2010-07-20, 00:41:04,VALID,917.198,VALID,0,VALID,95.9026,VALID,0,VALID,20.0328,VALID,115,VALID,0,
2010-07-20, 00:42:04,VALID,917.198,VALID,0,VALID,95.8568,VALID,0,VALID,20.0328,VALID,115,VALID,0.0808594,
2010-07-20, 00:43:04,VALID,917.202,VALID,0,VALID,95.9331,VALID,0,VALID,20.0523,VALID,115,VALID,0.466016,
2010-07-20, 00:44:04,VALID,917.15,VALID,0,VALID,95.9331,VALID,0,VALID,20.0523,VALID,115,VALID,0.207422,
2010-07-20, 00:45:04,VALID,917.175,VALID,0,VALID,95.9483,VALID,0,VALID,20.0523,VALID,115,VALID,0,
2010-07-20, 00:46:04,VALID,917.191,VALID,0,VALID,95.9102,VALID,0,VALID,20.0538,VALID,115,VALID,0,
2010-07-20, 00:47:04,VALID,917.189,VALID,0,VALID,95.6891,VALID,0,VALID,19.9953,VALID,115,VALID,0,
2010-07-20, 00:48:04,VALID,917.201,VALID,0,VALID,95.2012,VALID,0,VALID,19.8393,VALID,115,VALID,0,
2010-07-20, 00:49:04,VALID,917.172,VALID,0,VALID,95.0183,VALID,0,VALID,19.8003,VALID,115,VALID,0.185547,
2010-07-20, 00:50:04,VALID,917.216,VALID,0,VALID,94.9344,VALID,0,VALID,19.7223,VALID,115,VALID,0.255469,
2010-07-20, 00:51:04,VALID,917.221,VALID,0,VALID,95.0183,VALID,0,VALID,19.6833,VALID,115,VALID,0.196484,
2010-07-20, 00:52:04,VALID,917.189,VALID,0,VALID,95.1326,VALID,0,VALID,19.6443,VALID,115,VALID,0,
2010-07-20, 00:53:04,VALID,917.204,VALID,0,VALID,95.2927,VALID,0,VALID,19.5843,VALID,115,VALID,0,
2010-07-20, 00:54:04,VALID,917.195,VALID,0,VALID,95.4299,VALID,0,VALID,19.5468,VALID,115,VALID,0,
2010-07-20, 00:55:04,VALID,917.164,VALID,0,VALID,95.5671,VALID,0,VALID,19.5078,VALID,115,VALID,0,
2010-07-20, 00:56:04,VALID,917.2,VALID,0,VALID,95.4604,VALID,0,VALID,19.4298,VALID,115,VALID,0.207422,
2010-07-20, 00:57:04,VALID,917.185,VALID,0,VALID,95.3766,VALID,0,VALID,19.3713,VALID,115,VALID,0.172656,
2010-07-20, 00:58:04,VALID,917.163,VALID,0,VALID,95.6357,VALID,0,VALID,19.3713,VALID,115,VALID,0.028125,
2010-07-20, 00:59:04,VALID,917.136,VALID,0,VALID,95.9483,VALID,0,VALID,19.4298,VALID,115,VALID,0.0125,
2010-07-20, 01:00:04,VALID,917.121,VALID,0,VALID,96.2304,VALID,0,VALID,19.5078,VALID,115,VALID,0.374219,
2010-07-20, 01:01:04,VALID,917.065,VALID,0,VALID,96.3447,VALID,0,VALID,19.5648,VALID,115,VALID,0,
2010-07-20, 01:02:04,VALID,917.055,VALID,0,VALID,96.3676,VALID,0,VALID,19.5843,VALID,115,VALID,0.402344,
2010-07-20, 01:03:04,VALID,917.03,VALID,0,VALID,95.9712,VALID,0.107441,VALID,19.4478,VALID,115,VALID,0.411328,
2010-07-20, 01:04:04,VALID,917.006,VALID,0,VALID,95.9788,VALID,0,VALID,19.3698,VALID,115,VALID,0.663281,
2010-07-20, 01:05:04,VALID,917.023,VALID,0,VALID,96.0855,VALID,0.107441,VALID,19.4088,VALID,115,VALID,0.405469,
2010-07-20, 01:06:04,VALID,917.007,VALID,0,VALID,95.895,VALID,0.107441,VALID,19.3099,VALID,115,VALID,0.303906,
2010-07-20, 01:07:04,VALID,916.985,VALID,0,VALID,95.9102,VALID,0.107441,VALID,19.2723,VALID,115,VALID,0.376563,
2010-07-20, 01:08:04,VALID,916.962,VALID,0,VALID,96.0322,VALID,0.107441,VALID,19.2528,VALID,115,VALID,0.355859,
2010-07-20, 01:09:04,VALID,916.955,VALID,0,VALID,96.3981,VALID,0.107441,VALID,19.3308,VALID,115,VALID,0.435937,
2010-07-20, 01:10:04,VALID,916.929,VALID,0,VALID,96.5506,VALID,0.107441,VALID,19.4478,VALID,115,VALID,0.454297,
2010-07-20, 01:11:04,VALID,916.898,VALID,0,VALID,96.5811,VALID,0.107441,VALID,19.4478,VALID,115,VALID,0.752344,
2010-07-20, 01:12:04,VALID,916.903,VALID,0,VALID,96.6573,VALID,0,VALID,19.4673,VALID,115,VALID,0.582812,
2010-07-20, 01:13:04,VALID,916.893,VALID,0,VALID,96.6878,VALID,0,VALID,19.4673,VALID,115,VALID,0.322656,
2010-07-20, 01:14:04,VALID,916.878,VALID,0,VALID,96.6954,VALID,0.107441,VALID,19.4673,VALID,115,VALID,0.260156,
2010-07-20, 01:15:04,VALID,916.911,VALID,0,VALID,96.7335,VALID,0.107441,VALID,19.4868,VALID,115,VALID,0,
2010-07-20, 01:16:04,VALID,916.855,VALID,0,VALID,96.7411,VALID,0,VALID,19.4868,VALID,115,VALID,0,
2010-07-20, 01:17:04,VALID,916.852,VALID,0,VALID,96.7869,VALID,0,VALID,19.5258,VALID,115,VALID,0.0339844,
2010-07-20, 01:18:04,VALID,916.808,VALID,0,VALID,96.6344,VALID,0,VALID,19.4478,VALID,115,VALID,0,
2010-07-20, 01:19:04,VALID,916.814,VALID,0,VALID,96.4819,VALID,0.107441,VALID,19.3308,VALID,115,VALID,0,
2010-07-20, 01:20:04,VALID,916.793,VALID,0,VALID,96.4362,VALID,0,VALID,19.2334,VALID,115,VALID,0,
2010-07-20, 01:21:04,VALID,916.793,VALID,0,VALID,96.5811,VALID,0.107441,VALID,19.2528,VALID,115,VALID,0,
2010-07-20, 01:22:04,VALID,916.81,VALID,0,VALID,96.6878,VALID,0.107441,VALID,19.3128,VALID,115,VALID,0.305078,
2010-07-20, 01:23:04,VALID,916.78,VALID,0,VALID,96.7869,VALID,0,VALID,19.3698,VALID,115,VALID,0.348437,
2010-07-20, 01:24:04,VALID,916.789,VALID,0,VALID,96.825,VALID,0,VALID,19.4088,VALID,115,VALID,0,
2010-07-20, 01:25:04,VALID,916.79,VALID,0,VALID,96.8784,VALID,0,VALID,19.4283,VALID,115,VALID,0.471094,
2010-07-20, 01:26:04,VALID,916.776,VALID,0,VALID,96.9241,VALID,0,VALID,19.4673,VALID,115,VALID,0.603125,
2010-07-20, 01:27:04,VALID,916.786,VALID,0,VALID,96.7183,VALID,0,VALID,19.3908,VALID,115,VALID,0.0960938,
2010-07-20, 01:28:04,VALID,916.784,VALID,0,VALID,96.7716,VALID,0,VALID,19.3713,VALID,115,VALID,0.326953,
2010-07-20, 01:29:04,VALID,916.775,VALID,0,VALID,96.7488,VALID,0,VALID,19.3308,VALID,115,VALID,0.1875,
2010-07-20, 01:30:04,VALID,916.749,VALID,0,VALID,96.7259,VALID,0,VALID,19.3323,VALID,114,VALID,0,
2010-07-20, 01:31:04,VALID,916.755,VALID,0,VALID,96.7411,VALID,0,VALID,19.2918,VALID,116,VALID,0,
2010-07-20, 01:32:04,VALID,916.735,VALID,0,VALID,96.9012,VALID,0.107441,VALID,19.3893,VALID,114,VALID,0.266406,
2010-07-20, 01:33:04,VALID,916.734,VALID,0,VALID,96.7107,VALID,0.107441,VALID,19.3113,VALID,115,VALID,0.300391,
2010-07-20, 01:34:04,VALID,916.755,VALID,0,VALID,96.9012,VALID,0,VALID,19.4088,VALID,115,VALID,0.544922,
2010-07-20, 01:35:04,VALID,916.739,VALID,0,VALID,96.8707,VALID,0.107441,VALID,19.4283,VALID,115,VALID,0.244922,
2010-07-20, 01:36:04,VALID,916.741,VALID,0,VALID,96.8936,VALID,0,VALID,19.4868,VALID,115,VALID,0.401953,
2010-07-20, 01:37:04,VALID,916.742,VALID,0,VALID,96.6649,VALID,0.107441,VALID,19.3698,VALID,115,VALID,0.398438,
2010-07-20, 01:38:04,VALID,916.769,VALID,0,VALID,96.5658,VALID,0,VALID,19.3308,VALID,115,VALID,0.528906,
2010-07-20, 01:39:04,VALID,916.749,VALID,0,VALID,96.8021,VALID,0,VALID,19.4283,VALID,115,VALID,0.763672,
2010-07-20, 01:40:04,VALID,916.741,VALID,0,VALID,96.764,VALID,0,VALID,19.4673,VALID,115,VALID,0.516406,
2010-07-20, 01:41:04,VALID,916.739,VALID,0,VALID,96.5734,VALID,0,VALID,19.3893,VALID,115,VALID,0.546875,
2010-07-20, 01:42:04,VALID,916.753,VALID,0,VALID,96.6344,VALID,0,VALID,19.4478,VALID,115,VALID,0.407422,
2010-07-20, 01:43:04,VALID,916.737,VALID,0,VALID,96.7107,VALID,0,VALID,19.4868,VALID,115,VALID,0.420312,
2010-07-20, 01:44:04,VALID,916.712,VALID,0,VALID,96.6573,VALID,0,VALID,19.5258,VALID,115,VALID,0,
2010-07-20, 01:45:04,VALID,916.732,VALID,0,VALID,96.6268,VALID,0,VALID,19.5453,VALID,115,VALID,0.175391,
2010-07-20, 01:46:04,VALID,916.688,VALID,0,VALID,96.6954,VALID,0,VALID,19.5843,VALID,115,VALID,0.455078,
2010-07-20, 01:47:04,VALID,916.689,VALID,0,VALID,96.6725,VALID,0,VALID,19.6638,VALID,115,VALID,0.211328,
2010-07-20, 01:48:04,VALID,916.65,VALID,0,VALID,96.6497,VALID,0,VALID,19.6623,VALID,115,VALID,0,
2010-07-20, 01:49:04,VALID,916.635,VALID,0,VALID,96.6039,VALID,0,VALID,19.6623,VALID,115,VALID,0.153516,
2010-07-20, 01:50:04,VALID,916.609,VALID,0,VALID,96.6115,VALID,0,VALID,19.6818,VALID,115,VALID,0.0140625,
2010-07-20, 01:51:04,VALID,916.6,VALID,0,VALID,96.5734,VALID,0,VALID,19.6818,VALID,115,VALID,0.822656,
2010-07-20, 01:52:04,VALID,916.612,VALID,0,VALID,96.5582,VALID,0,VALID,19.6623,VALID,115,VALID,0.825781,
2010-07-20, 01:53:04,VALID,916.64,VALID,0,VALID,96.4819,VALID,0.107441,VALID,19.6428,VALID,115,VALID,0.422266,
2010-07-20, 01:54:04,VALID,916.643,VALID,0,VALID,96.4743,VALID,0.107441,VALID,19.6233,VALID,115,VALID,0.236719,
2010-07-20, 01:55:04,VALID,916.639,VALID,0,VALID,96.5353,VALID,0,VALID,19.6428,VALID,115,VALID,0.389062,
2010-07-20, 01:56:04,VALID,916.66,VALID,0,VALID,96.4667,VALID,0,VALID,19.6428,VALID,115,VALID,0.411719,
2010-07-20, 01:57:04,VALID,916.656,VALID,0,VALID,96.4133,VALID,0,VALID,19.6233,VALID,115,VALID,0.143359,
2010-07-20, 01:58:04,VALID,916.668,VALID,0,VALID,96.421,VALID,0,VALID,19.6248,VALID,115,VALID,0.483594,
2010-07-20, 01:59:04,VALID,916.674,VALID,0,VALID,96.4438,VALID,0,VALID,19.6623,VALID,115,VALID,0.548437,
2010-07-20, 02:00:04,VALID,916.691,VALID,0,VALID,96.3142,VALID,0,VALID,19.6818,VALID,115,VALID,0.602734,
2010-07-20, 02:01:04,VALID,916.69,VALID,0,VALID,96.2075,VALID,0,VALID,19.7208,VALID,115,VALID,0.611328,
2010-07-20, 02:02:04,VALID,916.672,VALID,0,VALID,96.0398,VALID,0,VALID,19.7403,VALID,115,VALID,0.678516,
2010-07-20, 02:03:04,VALID,916.662,VALID,0,VALID,95.9026,VALID,0,VALID,19.7988,VALID,115,VALID,0.833984,
2010-07-20, 02:04:04,VALID,916.641,VALID,0,VALID,95.651,VALID,0,VALID,19.8378,VALID,115,VALID,0.782812,
2010-07-20, 02:05:04,VALID,916.62,VALID,0,VALID,95.3689,VALID,0.107441,VALID,19.8768,VALID,115,VALID,0.960547,
2010-07-20, 02:06:04,VALID,916.596,VALID,0,VALID,95.1021,VALID,0,VALID,19.9143,VALID,115,VALID,0.838672,
2010-07-20, 02:07:04,VALID,916.538,VALID,0,VALID,94.7896,VALID,0.107441,VALID,19.9743,VALID,115,VALID,0.741797,
2010-07-20, 02:08:04,VALID,916.543,VALID,0,VALID,94.5913,VALID,0.107441,VALID,19.9938,VALID,115,VALID,0.792188,
2010-07-20, 02:09:04,VALID,916.48,VALID,0,VALID,94.5075,VALID,0,VALID,20.0133,VALID,115,VALID,0.661328,
2010-07-20, 02:10:04,VALID,916.455,VALID,0,VALID,94.4617,VALID,0.107441,VALID,19.9938,VALID,115,VALID,0.654688,
2010-07-20, 02:11:04,VALID,916.445,VALID,0,VALID,94.4389,VALID,0,VALID,20.0133,VALID,115,VALID,0.773438,
2010-07-20, 02:12:04,VALID,916.457,VALID,0,VALID,94.4617,VALID,0.107441,VALID,19.9533,VALID,115,VALID,0.585547,
2010-07-20, 02:13:04,VALID,916.433,VALID,0,VALID,94.4999,VALID,0.107441,VALID,19.9743,VALID,115,VALID,0.642578,
2010-07-20, 02:14:04,VALID,916.422,VALID,0,VALID,94.6523,VALID,0,VALID,19.9743,VALID,115,VALID,1.11563,
2010-07-20, 02:15:04,VALID,916.419,VALID,0,VALID,94.5685,VALID,0.107441,VALID,19.9938,VALID,115,VALID,0.929297,
2010-07-20, 02:16:04,VALID,916.395,VALID,0,VALID,94.416,VALID,0.107441,VALID,19.9938,VALID,115,VALID,0.611328,
2010-07-20, 02:17:04,VALID,916.395,VALID,0,VALID,94.4999,VALID,0,VALID,20.0133,VALID,115,VALID,1.0793,
2010-07-20, 02:18:04,VALID,916.393,VALID,0,VALID,94.2559,VALID,0.107441,VALID,20.0328,VALID,115,VALID,0.79375,
2010-07-20, 02:19:04,VALID,916.366,VALID,0,VALID,94.3398,VALID,0,VALID,20.0523,VALID,115,VALID,0.621484,
2010-07-20, 02:20:04,VALID,916.371,VALID,0,VALID,94.2483,VALID,0,VALID,20.0718,VALID,115,VALID,0.745313,
2010-07-20, 02:21:04,VALID,916.335,VALID,0,VALID,94.1568,VALID,0,VALID,20.0718,VALID,115,VALID,0.974219,
2010-07-20, 02:22:04,VALID,916.328,VALID,0,VALID,93.9815,VALID,0,VALID,20.0913,VALID,115,VALID,0.7875,
2010-07-20, 02:23:04,VALID,916.308,VALID,0,VALID,93.7833,VALID,0.107441,VALID,20.0913,VALID,115,VALID,0.651953,
2010-07-20, 02:24:04,VALID,916.315,VALID,0,VALID,93.8595,VALID,0.107441,VALID,20.0718,VALID,115,VALID,0.638672,
2010-07-20, 02:25:04,VALID,916.278,VALID,0,VALID,93.9586,VALID,0.107441,VALID,20.0913,VALID,115,VALID,1.05898,
2010-07-20, 02:26:04,VALID,916.266,VALID,0,VALID,93.8976,VALID,0.107441,VALID,20.1108,VALID,115,VALID,0.867188,
2010-07-20, 02:27:04,VALID,916.272,VALID,0,VALID,93.6994,VALID,0,VALID,20.1108,VALID,115,VALID,0.608203,
2010-07-20, 02:28:04,VALID,916.278,VALID,0,VALID,93.8595,VALID,0.107441,VALID,20.1303,VALID,115,VALID,0,
2010-07-20, 02:29:04,VALID,916.316,VALID,0,VALID,93.8214,VALID,0,VALID,20.1303,VALID,114,VALID,0.305078,
2010-07-20, 02:30:04,VALID,916.306,VALID,0,VALID,93.9586,VALID,0.107441,VALID,20.1498,VALID,115,VALID,0.658594,
2010-07-20, 02:31:04,VALID,916.315,VALID,0,VALID,93.7756,VALID,0,VALID,20.1498,VALID,115,VALID,0.783594,
2010-07-20, 02:32:04,VALID,916.346,VALID,0,VALID,93.6842,VALID,0,VALID,20.1498,VALID,115,VALID,0.440234,
2010-07-20, 02:33:04,VALID,916.313,VALID,0,VALID,93.7985,VALID,0,VALID,20.1693,VALID,115,VALID,0.156641,
2010-07-20, 02:34:04,VALID,916.338,VALID,0,VALID,94.0653,VALID,0.107441,VALID,20.1888,VALID,115,VALID,0.0742188,
2010-07-20, 02:35:04,VALID,916.317,VALID,0,VALID,94.1339,VALID,0,VALID,20.1693,VALID,115,VALID,0.201172,
2010-07-20, 02:36:04,VALID,916.308,VALID,0,VALID,94.233,VALID,0,VALID,20.1888,VALID,115,VALID,0.502344,
2010-07-20, 02:37:04,VALID,916.277,VALID,0,VALID,94.1416,VALID,0.107441,VALID,20.1888,VALID,114,VALID,0,
2010-07-20, 02:38:04,VALID,916.262,VALID,0,VALID,93.8824,VALID,0.107441,VALID,20.1693,VALID,114,VALID,0.460547,
2010-07-20, 02:39:04,VALID,916.29,VALID,0,VALID,93.7147,VALID,0,VALID,20.1888,VALID,116,VALID,0.422266,
2010-07-20, 02:40:04,VALID,916.292,VALID,0,VALID,93.6308,VALID,0,VALID,20.1888,VALID,115,VALID,0.418359,
2010-07-20, 02:41:04,VALID,916.321,VALID,0,VALID,93.6155,VALID,0.107441,VALID,20.1888,VALID,115,VALID,0.494141,
2010-07-20, 02:42:04,VALID,916.325,VALID,0,VALID,93.4555,VALID,0.107441,VALID,20.1873,VALID,115,VALID,0.501172,
2010-07-20, 02:43:04,VALID,916.317,VALID,0,VALID,93.3335,VALID,0,VALID,20.1873,VALID,115,VALID,0.670313,
2010-07-20, 02:44:04,VALID,916.295,VALID,0,VALID,93.2954,VALID,0,VALID,20.2278,VALID,115,VALID,0.561719,
2010-07-20, 02:45:04,VALID,916.326,VALID,0,VALID,93.4402,VALID,0,VALID,20.2083,VALID,115,VALID,0.428516,
2010-07-20, 02:46:04,VALID,916.292,VALID,0,VALID,93.4707,VALID,0,VALID,20.2083,VALID,115,VALID,0.325,
2010-07-20, 02:47:04,VALID,916.302,VALID,0,VALID,93.4707,VALID,0,VALID,20.2083,VALID,115,VALID,0.607813,
2010-07-20, 02:48:04,VALID,916.289,VALID,0,VALID,93.4631,VALID,0,VALID,20.1888,VALID,115,VALID,0.431641,
2010-07-20, 02:49:04,VALID,916.282,VALID,0,VALID,93.5088,VALID,0,VALID,20.2083,VALID,115,VALID,0.557422,
2010-07-20, 02:50:04,VALID,916.325,VALID,0,VALID,93.6232,VALID,0,VALID,20.2278,VALID,115,VALID,0.718359,
2010-07-20, 02:51:04,VALID,916.334,VALID,0,VALID,93.5469,VALID,0,VALID,20.2278,VALID,115,VALID,0.654688,
2010-07-20, 02:52:04,VALID,916.327,VALID,0,VALID,93.5241,VALID,0.107441,VALID,20.2278,VALID,115,VALID,0.302734,
2010-07-20, 02:53:04,VALID,916.329,VALID,0,VALID,93.5851,VALID,0.107441,VALID,20.2473,VALID,115,VALID,0.394922,
2010-07-20, 02:54:04,VALID,916.341,VALID,0,VALID,93.5241,VALID,0,VALID,20.2668,VALID,115,VALID,0.555078,
2010-07-20, 02:55:04,VALID,916.377,VALID,0,VALID,93.5469,VALID,0.107441,VALID,20.2668,VALID,115,VALID,0.381641,
2010-07-20, 02:56:04,VALID,916.363,VALID,0,VALID,93.5241,VALID,0,VALID,20.2863,VALID,115,VALID,0.566797,
2010-07-20, 02:57:04,VALID,916.389,VALID,0,VALID,93.5012,VALID,0,VALID,20.3058,VALID,115,VALID,0.651953,
2010-07-20, 02:58:04,VALID,916.376,VALID,0,VALID,93.4478,VALID,0.107441,VALID,20.3253,VALID,115,VALID,0.368359,
2010-07-20, 02:59:04,VALID,916.386,VALID,0,VALID,93.3487,VALID,0.107441,VALID,20.3448,VALID,115,VALID,0.0597656,
2010-07-20, 03:00:04,VALID,916.4,VALID,0,VALID,93.1886,VALID,0.107441,VALID,20.3838,VALID,115,VALID,0.397656,
2010-07-20, 03:01:04,VALID,916.407,VALID,0,VALID,93.0438,VALID,0,VALID,20.4049,VALID,115,VALID,0.192969,
2010-07-20, 03:02:04,VALID,916.423,VALID,0,VALID,92.7846,VALID,0,VALID,20.4439,VALID,115,VALID,0.468359,
2010-07-20, 03:03:04,VALID,916.409,VALID,0,VALID,92.7617,VALID,0,VALID,20.4439,VALID,115,VALID,0.214062,
2010-07-20, 03:04:04,VALID,916.404,VALID,0,VALID,92.838,VALID,0,VALID,20.4244,VALID,115,VALID,0.00585938,
2010-07-20, 03:05:04,VALID,916.415,VALID,0,VALID,92.9828,VALID,0,VALID,20.4049,VALID,115,VALID,0,
2010-07-20, 03:06:04,VALID,916.43,VALID,0,VALID,93.0438,VALID,0,VALID,20.3659,VALID,115,VALID,0,
2010-07-20, 03:07:04,VALID,916.471,VALID,0,VALID,93.1963,VALID,0,VALID,20.3464,VALID,115,VALID,0.104297,
2010-07-20, 03:08:04,VALID,916.465,VALID,0,VALID,93.3335,VALID,0,VALID,20.3074,VALID,115,VALID,0.399609,
2010-07-20, 03:09:04,VALID,916.494,VALID,0,VALID,93.4936,VALID,0,VALID,20.2684,VALID,115,VALID,0.439453,
2010-07-20, 03:10:04,VALID,916.499,VALID,0,VALID,93.7833,VALID,0,VALID,20.2098,VALID,115,VALID,0.521875,
2010-07-20, 03:11:04,VALID,916.475,VALID,0,VALID,93.951,VALID,0,VALID,20.1708,VALID,115,VALID,0,
2010-07-20, 03:12:04,VALID,916.482,VALID,0,VALID,94.1721,VALID,0,VALID,20.1318,VALID,115,VALID,0.467969,
2010-07-20, 03:13:04,VALID,916.522,VALID,0,VALID,94.3321,VALID,0,VALID,20.1108,VALID,115,VALID,0.129688,
2010-07-20, 03:14:04,VALID,916.512,VALID,0,VALID,94.4084,VALID,0,VALID,20.0733,VALID,115,VALID,0,
2010-07-20, 03:15:04,VALID,916.516,VALID,0,VALID,94.5227,VALID,0,VALID,20.0733,VALID,115,VALID,0,
2010-07-20, 03:16:04,VALID,916.527,VALID,0,VALID,94.5761,VALID,0,VALID,20.0538,VALID,115,VALID,0.0078125,
2010-07-20, 03:17:04,VALID,916.543,VALID,0,VALID,94.6295,VALID,0,VALID,20.0343,VALID,115,VALID,0.00351562,
2010-07-20, 03:18:04,VALID,916.579,VALID,0,VALID,94.6066,VALID,0,VALID,20.0148,VALID,115,VALID,0.124219,
2010-07-20, 03:19:04,VALID,916.537,VALID,0,VALID,94.6447,VALID,0,VALID,19.9953,VALID,115,VALID,0.414063,
2010-07-20, 03:20:04,VALID,916.521,VALID,0,VALID,94.7057,VALID,0,VALID,19.9563,VALID,115,VALID,0.213672,
2010-07-20, 03:21:04,VALID,916.512,VALID,0,VALID,94.7133,VALID,0,VALID,19.9368,VALID,115,VALID,0.353906,
2010-07-20, 03:22:04,VALID,916.509,VALID,0,VALID,94.7896,VALID,0,VALID,19.9368,VALID,115,VALID,0.348437,
2010-07-20, 03:23:04,VALID,916.51,VALID,0,VALID,94.9039,VALID,0,VALID,19.8978,VALID,115,VALID,0.0683594,
2010-07-20, 03:24:04,VALID,916.505,VALID,0,VALID,94.8658,VALID,0,VALID,19.8783,VALID,115,VALID,0,
2010-07-20, 03:25:04,VALID,916.51,VALID,0,VALID,94.881,VALID,0,VALID,19.8588,VALID,115,VALID,0.148828,
2010-07-20, 03:26:04,VALID,916.536,VALID,0,VALID,94.9801,VALID,0,VALID,19.8198,VALID,115,VALID,0,
2010-07-20, 03:27:04,VALID,916.511,VALID,0,VALID,95.0945,VALID,0,VALID,19.8003,VALID,115,VALID,0,
2010-07-20, 03:28:04,VALID,916.547,VALID,0,VALID,95.2622,VALID,0,VALID,19.7808,VALID,115,VALID,0,
2010-07-20, 03:29:04,VALID,916.561,VALID,0,VALID,95.3537,VALID,0,VALID,19.7613,VALID,115,VALID,0,
2010-07-20, 03:30:04,VALID,916.543,VALID,0,VALID,95.4985,VALID,0,VALID,19.7403,VALID,115,VALID,0,
2010-07-20, 03:31:04,VALID,916.558,VALID,0,VALID,95.5748,VALID,0,VALID,19.7208,VALID,115,VALID,0.187109,
2010-07-20, 03:32:04,VALID,916.529,VALID,0,VALID,95.5824,VALID,0,VALID,19.7418,VALID,115,VALID,0.166016,
2010-07-20, 03:33:04,VALID,916.551,VALID,0,VALID,95.5138,VALID,0,VALID,19.6818,VALID,115,VALID,0.125,
2010-07-20, 03:34:04,VALID,916.551,VALID,0,VALID,95.5214,VALID,0,VALID,19.6638,VALID,115,VALID,0.0375,
2010-07-20, 03:35:04,VALID,916.552,VALID,0,VALID,95.5976,VALID,0,VALID,19.6638,VALID,115,VALID,0,
2010-07-20, 03:36:04,VALID,916.572,VALID,0,VALID,95.7425,VALID,0,VALID,19.6638,VALID,115,VALID,0,
2010-07-20, 03:37:04,VALID,916.595,VALID,0,VALID,95.8035,VALID,0,VALID,19.7028,VALID,115,VALID,0,
2010-07-20, 03:38:04,VALID,916.574,VALID,0,VALID,95.8873,VALID,0,VALID,19.7223,VALID,115,VALID,0,
2010-07-20, 03:39:04,VALID,916.588,VALID,0,VALID,95.9407,VALID,0,VALID,19.7418,VALID,115,VALID,0,
2010-07-20, 03:40:04,VALID,916.598,VALID,0,VALID,95.9712,VALID,0,VALID,19.7613,VALID,115,VALID,0.117969,
2010-07-20, 03:41:04,VALID,916.607,VALID,0,VALID,95.9864,VALID,0,VALID,19.7808,VALID,115,VALID,0.433203,
2010-07-20, 03:42:04,VALID,916.608,VALID,0,VALID,95.9788,VALID,0,VALID,19.7808,VALID,115,VALID,0.318359,
2010-07-20, 03:43:04,VALID,916.6,VALID,0,VALID,95.9254,VALID,0,VALID,19.7808,VALID,115,VALID,0.310547,